[[{"header":{"parameterUnit":"m.s-1","parameterCategory":1,"la1":30.2991,"la2":30.254,"lo1":-89.0895,"lo2":-89.0444,"dy":0.0017,"dx":0.0017,"nx":28,"ny":28,"refTime":"2025-02-12T09:00:00:Z","depth":0,"parameterNumber":2,"parameterNumberName":"U-component_of_WINDS"},"data":[0,0,0,0,0,0,0,0,0,0,0,0,0,0,0,0,0,0,0,0,0,0,0,0,0,0,0,0,0,0,0,0,0,0,0,0,0,0,0,0,0,0,0,0,0,0,0,0,0,0,0,0,0,0,0,0,0,0,-2.9922,-2.9923,0,-3.0011,-3.0012,-3.0013,-2.9952,-2.9949,-2.9947,-2.9944,-3.0036,-3.004,-3.0045,0,0,0,0,0,0,0,0,0,0,0,0,0,-2.97,-2.9705,-2.9922,-2.9923,-2.9924,-3.001,-3.0012,-3.0013,-2.9953,-2.9949,-2.9946,-2.9943,-3.0034,-3.004,-3.0046,0,0,0,0,0,0,0,0,0,0,0,0,0,-2.9794,-2.9706,-2.9922,-2.9904,-2.9904,-3.001,-3.0012,-3.0013,-2.9953,-2.9949,-2.9945,-2.9941,-3.0032,-3.0039,-3.0047,-3.0175,0,0,-3.007,-3.0073,0,0,0,0,0,0,0,0,-2.9788,-2.9802,-2.9906,-2.9906,-2.9905,-2.9966,-2.9967,-3.0068,-2.9954,-2.9935,-2.9944,-2.9939,-3.0016,-3.0024,-3.005,-3.018,-3.0184,-3.007,-3.0075,-3.0078,-3.008,0,0,0,0,0,0,0,-2.9782,-2.9798,-2.9957,-2.9907,-2.9907,-2.9892,-2.9901,-2.9986,-2.9997,-2.9936,-2.9932,-2.9943,-3.0015,-3.0043,-3.0052,-3.0185,-3.007,-3.0077,-3.0081,-3.0084,-3.0425,-3.0429,0,0,0,0,0,0,-2.9777,-2.9793,-2.9954,-2.996,-2.9835,-2.99,-2.9909,-2.9951,-2.9996,-2.9999,-2.9946,-2.994,-3.0032,-3.0043,-3.0055,-3.0209,-3.0078,-3.0085,-3.0089,-3.042,-3.0426,-3.0431,0,0,0,0,0,0,-2.9772,-2.9792,-2.9951,-2.9875,-2.9894,-2.9908,-2.9955,-2.9955,-2.9983,-3.0004,-3.0006,-2.9973,-3.0029,-3.0044,-3.0146,-3.0212,-3.0088,-3.0095,-3.0415,-3.0422,-3.0428,-3.0519,0,0,0,0,0,0,-2.9766,-2.9791,-2.984,-2.9877,-2.9898,-3.0041,-2.9959,-2.9959,-2.9996,-2.9988,-3.003,-3.0033,-3.0027,-3.0135,-3.0153,-3.022,-3.0101,-3.0409,-3.0418,-3.0426,-3.051,-3.0528,-3.0543,0,0,0,0,0,-2.9759,-2.9862,-2.9843,-2.9863,-2.996,-3.0045,-3.0057,-3.0049,-3.0001,-3.0051,-3.0064,-3.0031,-3.0201,-3.0146,-3.0166,-3.0236,-3.0405,-3.0415,-3.0425,-3.0503,-3.0524,-3.0543,0,0,0,0,0,0,-2.9833,-2.9867,-2.9846,-2.9964,-3.0002,-3.0034,-3.0097,-3.0072,-3.0124,-3.0115,-3.0102,-3.0112,-3.0219,-3.0237,-3.0175,-3.0362,-3.0295,-3.031,-3.0347,-3.0368,-3.0384,-3.0379,-3.0107,0,0,0,0,0,-2.9863,-2.9929,-2.9954,-3.0056,-3.0076,-3.0083,-3.012,-3.011,-3.0149,-3.0165,-3.0186,-3.0225,-3.0287,-3.0328,-3.0386,-3.0511,-3.052,-3.0569,-3.0586,-3.0599,-3.0613,-3.0681,-3.0703,-3.0464,-3.0464,-3.0464,0,0,-2.9927,-2.9953,-2.9995,-3.0072,-3.01,-3.0169,-3.0097,-3.0173,-3.0224,-3.0176,-3.0274,-3.029,-3.0333,-3.0447,-3.0498,-3.0466,-3.068,-3.0612,-3.0623,-3.0629,-3.0694,-3.0716,-3.0736,-3.0471,-3.047,-3.0469,0,0,-3.0078,-3.0103,-3.0192,-3.0221,-3.0264,-3.0268,-3.0289,-3.0325,-3.0334,-3.0432,-3.0398,-3.0457,-3.0564,-3.0596,-3.0627,-3.0788,-3.076,-3.0807,-3.0895,-3.0961,-3.098,-3.0997,-3.1055,-3.1076,-3.082,-3.082,-3.082,0,-3.0151,-3.0253,-3.024,-3.0319,-3.0353,-3.0312,-3.0402,-3.0431,-3.0491,-3.0517,-3.0478,-3.0612,-3.0637,-3.0759,-3.0798,-3.0823,-3.0848,-3.0804,-3.0978,-3.0995,-3.101,-3.1066,-3.1088,-3.0826,-3.0825,-3.0825,-3.0824,0,-3.0342,-3.0413,-3.0478,-3.0538,-3.058,-3.0663,-3.0663,-3.0707,-3.0693,-3.0701,-3.08,-3.0829,-3.0893,-3.092,-3.0908,-3.104,-3.1018,-3.0979,-3.0912,-3.1039,-3.1091,-3.1112,-3.0834,-3.0832,-3.083,-3.0829,0,0,-3.0544,-3.0594,-3.0619,-3.0645,-3.0689,-3.0744,-3.0825,-3.0887,-3.0925,-3.0968,-3.1036,-3.1127,-3.1091,-3.1125,-3.1115,-3.1173,-3.13,-3.1127,-3.1128,-3.1159,-3.1449,-3.148,-3.1505,-3.1281,-3.1285,-3.1288,-3.1446,0,-3.0699,-3.0841,-3.0831,-3.0965,-3.1031,-3.0992,-3.1062,-3.1097,-3.1106,-3.1163,-3.1172,-3.1237,-3.1184,-3.1205,-3.126,-3.1273,-3.1359,-3.1261,-3.1345,-3.1348,-3.1338,-3.1532,-3.1565,-3.1713,-3.1466,-3.147,-3.1472,0,-3.0899,-3.0948,-3.1088,-3.1122,-3.1149,-3.1213,-3.1269,-3.1323,-3.1362,-3.1364,-3.1402,-3.1382,-3.1463,-3.1392,-3.1505,-3.1439,-3.1472,-3.1484,-3.1489,-3.1498,-3.142,-3.1548,-3.176,-3.1783,-3.1504,-3.1501,-3.1499,0,-3.1035,-3.1135,-3.1233,-3.1256,-3.1298,-3.1343,-3.1363,-3.1397,-3.1435,-3.1483,-3.1507,-3.1564,-3.1596,-3.1641,-3.1637,-3.1585,-3.1752,-3.168,-3.1757,-3.1757,-3.1796,-3.1794,-3.2018,-3.1814,-3.1813,-3.1813,-3.1813,0,-3.1209,-3.1297,-3.1294,-3.1354,-3.1451,-3.1439,-3.1535,-3.1549,-3.158,-3.1642,-3.161,-3.1669,-3.1659,-3.1718,-3.1715,-3.181,-3.1824,-3.1828,-3.1827,-3.1833,-3.1832,-3.1856,-3.1846,-3.1819,-3.1818,-3.1816,-3.1815,0,-3.1379,-3.138,-3.1484,-3.1514,-3.1523,-3.1594,-3.162,-3.1677,-3.1682,-3.1761,-3.1778,-3.1787,-3.1855,-3.1854,-3.1931,-3.1929,-3.2046,-3.2031,-3.2033,-3.2031,-3.2108,-3.2102,-3.2357,-3.239,-3.2163,-3.2165,-3.2167,0,-3.1491,-3.1558,-3.1595,-3.1634,-3.1657,-3.172,-3.1758,-3.1748,-3.1789,-3.1837,-3.1888,-3.1952,-3.2004,-3.2113,-3.2127,-3.2185,-3.2173,-3.2258,-3.2182,-3.2186,-3.2177,-3.2173,-3.218,-3.2274,-3.2277,-3.2279,-3.2281,0,-3.1692,-3.1689,-3.1745,-3.1801,-3.1847,-3.1891,-3.1932,-3.1965,-3.1959,-3.2007,-3.2075,-3.2115,-3.2193,-3.2258,-3.2314,-3.2334,-3.2307,-3.2304,-3.2325,-3.2333,-3.2332,-3.2335,-3.2076,-3.2299,-3.2297,-3.2296,-3.2295,-3.2294,-3.1837,-3.1895,-3.193,-3.1993,-3.2022,-3.2061,-3.2115,-3.2127,-3.2184,-3.2247,-3.2237,-3.2314,-3.2349,-3.2422,-3.2447,-3.2506,-3.2477,-3.2507,-3.2515,-3.2523,-3.2533,-3.232,-3.2516,-3.2516,-3.2515,-3.2515,-3.2515,0,-3.2037,-3.2058,-3.2116,-3.2173,-3.2223,-3.2192,-3.2234,-3.2278,-3.2346,-3.2382,-3.2432,-3.2511,-3.2573,-3.2591,-3.2651,-3.2695,-3.2685,-3.2712,-3.2709,-3.2715,-3.2555,-3.2532,-3.272,-3.272,-3.2719,-3.2719,-3.2719,-3.2719,-3.2147,-3.2243,-3.2244,-3.2354,-3.2373,-3.2449,-3.2476,-3.2511,-3.2539,-3.2628,-3.268,-3.269,-3.2719,-3.278,-3.2836,-3.2839,-3.2864,-3.2896,-3.2895,-3.2746,-3.2726,-3.2706,-3.2684,-3.2901,-3.2901,-3.305,-3.3051,-3.3052]},{"header":{"parameterUnit":"m.s-1","parameterCategory":1,"la1":30.2991,"la2":30.254,"lo1":-89.0895,"lo2":-89.0444,"dy":0.0017,"dx":0.0017,"nx":28,"ny":28,"refTime":"2025-02-12T09:00:00:Z","depth":0,"parameterNumber":3,"parameterNumberName":"V-component_of_WINDS"},"data":[0,0,0,0,0,0,0,0,0,0,0,0,0,0,0,0,0,0,0,0,0,0,0,0,0,0,0,0,0,0,0,0,0,0,0,0,0,0,0,0,0,0,0,0,0,0,0,0,0,0,0,0,0,0,0,0,0,0,-7.2504,-7.2505,0,-7.2639,-7.2641,-7.2642,-7.2561,-7.2557,-7.2554,-7.255,-7.2683,-7.269,-7.2697,0,0,0,0,0,0,0,0,0,0,0,0,0,-7.2169,-7.2176,-7.2503,-7.2505,-7.2507,-7.2639,-7.2641,-7.2642,-7.2562,-7.2557,-7.2553,-7.2548,-7.2681,-7.269,-7.2698,0,0,0,0,0,0,0,0,0,0,0,0,0,-7.231,-7.2178,-7.2503,-7.2483,-7.2482,-7.2638,-7.2641,-7.2643,-7.2563,-7.2557,-7.2551,-7.2546,-7.2678,-7.2689,-7.2699,-7.2882,0,0,-7.2732,-7.2737,0,0,0,0,0,0,0,0,-7.2302,-7.2323,-7.2484,-7.2484,-7.2484,-7.2577,-7.2572,-7.2723,-7.2564,-7.2532,-7.255,-7.2543,-7.2653,-7.2665,-7.2703,-7.2888,-7.2894,-7.2733,-7.274,-7.2744,-7.2747,0,0,0,0,0,0,0,-7.2293,-7.2316,-7.2557,-7.2486,-7.2487,-7.2465,-7.2478,-7.26,-7.2623,-7.2534,-7.2529,-7.2546,-7.2651,-7.2693,-7.2706,-7.2896,-7.2733,-7.2742,-7.2749,-7.2753,-7.3236,-7.3242,0,0,0,0,0,0,-7.2285,-7.2309,-7.2553,-7.2561,-7.2377,-7.2476,-7.2491,-7.2553,-7.2622,-7.2626,-7.2551,-7.2542,-7.2677,-7.2693,-7.271,-7.2928,-7.2744,-7.2754,-7.276,-7.3229,-7.3237,-7.3244,0,0,0,0,0,0,-7.2278,-7.2308,-7.2547,-7.2434,-7.2462,-7.2488,-7.2558,-7.2559,-7.26,-7.2634,-7.2637,-7.259,-7.2673,-7.2695,-7.284,-7.2931,-7.2759,-7.2769,-7.3222,-7.3232,-7.3241,-7.3365,0,0,0,0,0,0,-7.2269,-7.2306,-7.2377,-7.2436,-7.2469,-7.2677,-7.2564,-7.2566,-7.262,-7.2609,-7.2671,-7.2676,-7.267,-7.2824,-7.2851,-7.2943,-7.2777,-7.3214,-7.3226,-7.3238,-7.3353,-7.3378,-7.3399,0,0,0,0,0,-7.2257,-7.2406,-7.2381,-7.2411,-7.2558,-7.2682,-7.2701,-7.2693,-7.2628,-7.2698,-7.272,-7.2674,-7.2917,-7.284,-7.2869,-7.2966,-7.3208,-7.3223,-7.3237,-7.3343,-7.3373,-7.3399,0,0,0,0,0,0,-7.2355,-7.2413,-7.2386,-7.2558,-7.2616,-7.2669,-7.2758,-7.2726,-7.2802,-7.2789,-7.2774,-7.2789,-7.294,-7.2967,-7.288,-7.3145,-7.3052,-7.3073,-7.3123,-7.3152,-7.3174,-7.3165,-7.2786,0,0,0,0,0,-7.2397,-7.2495,-7.2539,-7.2686,-7.2717,-7.2733,-7.2786,-7.2775,-7.2834,-7.2858,-7.289,-7.2947,-7.3036,-7.3095,-7.3179,-7.3356,-7.3368,-7.3437,-7.346,-7.3479,-7.3497,-7.3592,-7.3623,-7.3291,-7.3291,-7.3291,0,0,-7.2484,-7.2527,-7.259,-7.2707,-7.2751,-7.2851,-7.2754,-7.2863,-7.2937,-7.2874,-7.3013,-7.3039,-7.3101,-7.3263,-7.3336,-7.329,-7.3591,-7.3497,-7.3512,-7.352,-7.361,-7.3641,-7.3669,-7.3301,-7.3299,-7.3298,0,0,-7.2693,-7.2737,-7.2864,-7.291,-7.2978,-7.2987,-7.3018,-7.3076,-7.3091,-7.3231,-7.3185,-7.3271,-7.3425,-7.3471,-7.3515,-7.3742,-7.3702,-7.3769,-7.3889,-7.3982,-7.4008,-7.4031,-7.4112,-7.4141,-7.3787,-7.3787,-7.3787,0,-7.2793,-7.2943,-7.2933,-7.3047,-7.3099,-7.3048,-7.3176,-7.322,-7.3312,-7.3348,-7.3296,-7.3488,-7.3526,-7.3698,-7.3753,-7.3791,-7.3824,-7.3762,-7.4006,-7.4029,-7.405,-7.4127,-7.4157,-7.3795,-7.3794,-7.3793,-7.3793,0,-7.3061,-7.3166,-7.3261,-7.3352,-7.3415,-7.3535,-7.3541,-7.3606,-7.3589,-7.3603,-7.3746,-7.379,-7.3882,-7.3921,-7.3906,-7.4091,-7.406,-7.4007,-7.3913,-7.409,-7.4161,-7.419,-7.3806,-7.3803,-7.3801,-7.3799,0,0,-7.3337,-7.3421,-7.3456,-7.3497,-7.3568,-7.3648,-7.3764,-7.3856,-7.3911,-7.3975,-7.4072,-7.4203,-7.4155,-7.4204,-7.4193,-7.4274,-7.445,-7.4211,-7.4212,-7.4254,-7.4657,-7.4697,-7.4731,-7.4424,-7.443,-7.4434,-7.4651,0,-7.3551,-7.3758,-7.3752,-7.3944,-7.404,-7.3992,-7.4094,-7.4147,-7.4163,-7.4245,-7.4262,-7.4355,-7.4284,-7.4314,-7.4392,-7.4412,-7.4531,-7.4396,-7.4513,-7.4517,-7.45,-7.4768,-7.4811,-7.5014,-7.4679,-7.4684,-7.4687,0,-7.3829,-7.3905,-7.4107,-7.4163,-7.4203,-7.4295,-7.4378,-7.4457,-7.4516,-7.4522,-7.4577,-7.4553,-7.4669,-7.4572,-7.4731,-7.464,-7.4687,-7.4704,-7.4711,-7.4722,-7.4613,-7.4787,-7.5079,-7.5109,-7.4731,-7.4728,-7.4725,0,-7.401,-7.4162,-7.4302,-7.4338,-7.4407,-7.4473,-7.4504,-7.4557,-7.4613,-7.4684,-7.4719,-7.4803,-7.4849,-7.4913,-7.4911,-7.484,-7.5072,-7.4975,-7.5079,-7.508,-7.5131,-7.5128,-7.5435,-7.5161,-7.516,-7.516,-7.5159,0,-7.425,-7.4376,-7.4385,-7.4471,-7.4609,-7.46,-7.4737,-7.4761,-7.4809,-7.4898,-7.486,-7.4944,-7.4936,-7.502,-7.5018,-7.515,-7.5171,-7.5178,-7.5176,-7.5182,-7.5181,-7.5212,-7.5198,-7.5168,-7.5166,-7.5164,-7.5163,0,-7.4476,-7.4488,-7.4637,-7.4691,-7.4707,-7.4807,-7.4851,-7.4932,-7.4945,-7.5057,-7.5083,-7.5102,-7.5199,-7.5203,-7.5314,-7.5313,-7.5474,-7.5456,-7.5455,-7.5451,-7.5556,-7.5546,-7.5894,-7.5939,-7.5636,-7.5639,-7.5641,0,-7.4629,-7.4725,-7.4789,-7.4847,-7.4883,-7.4976,-7.5032,-7.5026,-7.5086,-7.516,-7.5232,-7.5325,-7.54,-7.5556,-7.5578,-7.5662,-7.5646,-7.5763,-7.5659,-7.5661,-7.5648,-7.5643,-7.5652,-7.5783,-7.5786,-7.5789,-7.5791,0,-7.4899,-7.49,-7.4984,-7.507,-7.5139,-7.5206,-7.5268,-7.5317,-7.5317,-7.5386,-7.5486,-7.5544,-7.5657,-7.575,-7.5832,-7.5861,-7.5827,-7.5824,-7.5852,-7.586,-7.5855,-7.5859,-7.551,-7.5816,-7.5814,-7.5812,-7.581,-7.5809,-7.5094,-7.5176,-7.5235,-7.5329,-7.5375,-7.5434,-7.5513,-7.5536,-7.5619,-7.5713,-7.5703,-7.5813,-7.5867,-7.5974,-7.6011,-7.6095,-7.6055,-7.6096,-7.6107,-7.6118,-7.6129,-7.5842,-7.611,-7.6109,-7.6108,-7.6108,-7.6107,0,-7.5362,-7.5397,-7.5484,-7.5573,-7.5647,-7.5609,-7.5675,-7.5739,-7.5837,-7.5892,-7.5967,-7.608,-7.617,-7.6199,-7.6286,-7.6348,-7.6334,-7.6371,-7.6366,-7.6374,-7.616,-7.6127,-7.6381,-7.638,-7.638,-7.638,-7.638,-7.638,-7.551,-7.5648,-7.5656,-7.5815,-7.5848,-7.5958,-7.5999,-7.6052,-7.6096,-7.6226,-7.6301,-7.632,-7.6364,-7.6453,-7.6533,-7.6539,-7.6573,-7.6617,-7.6616,-7.6416,-7.6389,-7.6362,-7.6331,-7.6624,-7.6624,-7.6823,-7.6824,-7.6826]}]]